[[{"header":{"parameterUnit":"m.s-1","parameterCategory":1,"la1":30.2992,"la2":30.254,"lo1":-89.0895,"lo2":-89.0443,"dy":0.0025,"dx":0.0025,"nx":19,"ny":19,"refTime":"2026-03-20T09:00:00:Z","depth":0,"parameterNumber":2,"parameterNumberName":"U-component_of_WINDS"},"data":[0,0,0,4.0104,4.011,4.0392,4.0393,4.0754,4.0757,0,0,0,0,0,0,0,0,0,0,0,4.002,4.0023,4.0104,4.0111,4.0392,4.0393,4.0753,4.0757,0,0,0,0,0,0,0,0,0,0,0,4.0019,4.0022,4.0025,4.0112,4.0392,4.0393,4.0752,4.054,0,0,0,0,0,0,0,0,0,0,4.0267,4.0188,4.0021,4.0025,4.0114,4.0391,4.0393,4.053,4.0553,4.0626,0,4.0689,0,4.0728,4.0781,4.0782,0,0,0,4.0112,4.0169,4.0245,4.0026,4.0116,4.0391,4.0266,4.0543,4.057,4.0657,4.0694,4.0708,4.0734,4.0783,4.0785,4.1194,4.1196,0,0,4.0097,4.0071,4.0226,4.0262,4.0217,4.0256,4.0274,4.0559,4.0599,4.0696,4.0716,4.074,4.0786,4.0788,4.1192,4.1195,0,0,0,4.0051,4.006,4.0129,4.0247,4.0298,4.0265,4.0285,4.0586,4.0611,4.072,4.0745,4.0788,4.0792,4.119,4.1193,4.1258,0,0,0,4.0042,4.0034,4.0123,4.011,4.0292,4.0445,4.0306,4.0591,4.0624,4.0743,4.0788,4.0795,4.1188,4.1192,4.1252,4.1293,0,0,0,4.0002,4.0029,4.0069,4.0108,4.0228,4.0441,4.0482,4.0599,4.0639,4.0782,4.0796,4.1187,4.1191,4.1246,4.1284,4.1391,0,0,0,3.9953,4.0126,4.007,4.0272,4.0225,4.0479,4.0481,4.0672,4.0802,4.0789,4.1189,4.1193,4.1244,4.1278,4.1384,4.1474,4.151,0,0,4.0156,4.0149,4.027,4.0228,4.0484,4.0438,4.0705,4.085,4.0889,4.109,4.1101,4.1254,4.1283,4.1389,4.172,4.1748,0,0,0,4.0326,4.0412,4.0485,4.0607,4.072,4.082,4.0927,4.0981,4.1152,4.0987,4.1323,4.1341,4.1405,4.1449,4.1473,4.1527,4.1213,4.1212,4.1212,4.0577,4.0614,4.0815,4.0885,4.1004,4.111,4.1209,4.13,4.1306,4.1384,4.1444,4.164,4.1691,4.1709,4.1765,4.1496,4.1496,4.1497,4.1497,4.0876,4.1003,4.1003,4.1197,4.1236,4.1401,4.151,4.1508,4.1667,4.1599,4.1657,4.1578,4.1738,4.1789,4.1502,4.1501,4.15,4.15,4.15,4.1043,4.111,4.1171,4.1348,4.1481,4.1547,4.1698,4.1729,4.176,4.1817,4.1881,4.1881,4.1881,4.1846,4.1846,4.1847,4.1848,4.1848,4.1849,4.1192,4.1258,4.1381,4.1513,4.1593,4.1704,4.1811,4.1892,4.1989,4.1999,4.2,4.1996,4.1747,4.1683,4.1859,4.1857,4.1856,4.1855,4.1854,4.1479,4.1418,4.1608,4.1688,4.1844,4.1973,4.2009,4.217,4.2242,4.2315,4.2299,4.211,4.2106,4.2087,4.2034,4.2291,4.2291,4.2291,4.2291,4.1619,4.1619,4.1817,4.1943,4.207,4.2121,4.2333,4.2417,4.2496,4.2542,4.251,4.2442,4.2422,4.2429,4.2403,4.2354,4.2687,4.2687,4.2688,4.1796,4.1809,4.1983,4.2056,4.218,4.2286,4.2485,4.263,4.2707,4.2704,4.2578,4.2561,4.2453,4.2416,4.241,4.2369,4.2279,0,0]},{"header":{"parameterUnit":"m.s-1","parameterCategory":1,"la1":30.2992,"la2":30.254,"lo1":-89.0895,"lo2":-89.0443,"dy":0.0025,"dx":0.0025,"nx":19,"ny":19,"refTime":"2026-03-20T09:00:00:Z","depth":0,"parameterNumber":3,"parameterNumberName":"V-component_of_WINDS"},"data":[0,0,0,1.1124,1.1126,1.1229,1.1229,1.137,1.1371,0,0,0,0,0,0,0,0,0,0,0,1.1098,1.1099,1.1124,1.1127,1.1229,1.1229,1.1369,1.1371,0,0,0,0,0,0,0,0,0,0,0,1.1097,1.1098,1.11,1.1127,1.1229,1.123,1.1369,1.1289,0,0,0,0,0,0,0,0,0,0,1.1188,1.1167,1.1098,1.11,1.1128,1.1229,1.123,1.1285,1.1294,1.1326,0,1.1355,0,1.1365,1.1381,1.1381,0,0,0,1.1124,1.1159,1.1183,1.11,1.1129,1.1229,1.1182,1.129,1.13,1.1338,1.1357,1.1362,1.1367,1.1382,1.1382,1.1572,1.1573,0,0,1.1119,1.1119,1.1176,1.119,1.1173,1.1179,1.1185,1.1296,1.1317,1.1357,1.1365,1.137,1.1383,1.1384,1.1571,1.1573,0,0,0,1.1104,1.1115,1.1136,1.1184,1.1202,1.1182,1.1189,1.1312,1.1318,1.1366,1.1371,1.1383,1.1385,1.157,1.1572,1.1621,0,0,0,1.11,1.1106,1.1133,1.1135,1.12,1.1258,1.1203,1.1311,1.1323,1.137,1.1384,1.1387,1.1569,1.1571,1.1617,1.1644,0,0,0,1.109,1.1105,1.1121,1.1134,1.1178,1.1256,1.1269,1.1314,1.1327,1.1381,1.1387,1.1569,1.1571,1.1614,1.1639,1.1694,0,0,0,1.1079,1.1164,1.1122,1.1218,1.1177,1.1284,1.1268,1.1349,1.1401,1.1384,1.1569,1.1572,1.1612,1.1636,1.1691,1.1741,1.1762,0,0,1.1186,1.1177,1.1234,1.1199,1.1313,1.1269,1.1391,1.1441,1.1447,1.1531,1.1535,1.1618,1.1639,1.1693,1.1877,1.1893,0,0,0,1.1268,1.1309,1.1339,1.1388,1.1426,1.1462,1.1492,1.151,1.158,1.1489,1.1652,1.1665,1.1697,1.1721,1.1735,1.1763,1.1583,1.1582,1.1582,1.1422,1.1423,1.1517,1.1531,1.1578,1.1607,1.1647,1.1676,1.1665,1.1704,1.1729,1.184,1.1868,1.1879,1.1908,1.1755,1.1755,1.1755,1.1756,1.158,1.1639,1.1619,1.1704,1.1705,1.1777,1.1808,1.1797,1.1865,1.1821,1.185,1.1803,1.1897,1.1922,1.1759,1.1759,1.1758,1.1758,1.1758,1.1682,1.171,1.1729,1.1799,1.1853,1.1864,1.1929,1.1928,1.1927,1.1955,1.1982,1.1982,1.1981,1.1968,1.1968,1.1969,1.1969,1.1969,1.197,1.1781,1.18,1.1854,1.19,1.1931,1.1971,1.2,1.2031,1.2065,1.2059,1.2059,1.2045,1.1905,1.187,1.1976,1.1975,1.1974,1.1973,1.1973,1.1943,1.1905,1.1989,1.202,1.2073,1.2127,1.2123,1.2186,1.2211,1.2243,1.2222,1.2118,1.2109,1.2098,1.207,1.222,1.222,1.222,1.222,1.2029,1.2023,1.2108,1.2157,1.2205,1.2209,1.2305,1.2328,1.2346,1.2362,1.234,1.2301,1.229,1.2288,1.2273,1.2246,1.2438,1.2438,1.2439,1.2129,1.2128,1.2209,1.2224,1.2265,1.2301,1.2391,1.2449,1.2462,1.2447,1.2374,1.2365,1.2303,1.2283,1.2269,1.2245,1.2196,0,0]}]]